Location: Guadanolo
(41.9167°N, 12.9333°E)
Time: 15:44:26
(UTC+00:00)

Nadezhda 1 Rocket - Pass Details

Date: 23 December 2019
Orbit: 940 x 1006 km, 83.0° (Epoch: 17 January)

Event Time Altitude Azimuth Distance (km) Brightness Sun altitude
Rises 17:21:07 0° 2° (N) 3,619 6.8 -17.9°
Reaches altitude 10° 17:23:59 10° 13° (NNE) 2,667 6.0 -18.4°
Enters shadow 17:26:34 21° 34° (NNE) 1,965 5.2 -18.8°
Exits shadow 17:37:17 - 143° (SE) 3,628 6.8 -20.8°
